If you wish to contribute or participate in the discussions about articles you are invited to join SKYbrary as a registered user

 Actions

New Tanegashima Airport

From SKYbrary Wiki

RJFG
Airport
ICAO: RJFG – IATA: TNE
Summary
Name New Tanegashima Airport
Region Asia and Pacific
Territory Japan JP.gif
Location Nakatane, Kagoshima Prefecture
Serving Tanegashima
Elevation 234.086 m
768 ft234.086 m
Coordinates 30° 36' 33.04" N, 130° 59' 29.45" E
Runways
Designator Length Width Surface ROPS
13/31 1995 m6,545.276 ft
45 m147.638 ft
ASP /


METAR
Observation RJFG 150300Z VRB08G18KT 9999 FEW015 BKN020 27/22 Q1007
Station Tanegashima Airport
Date/Time 15 September 2019 03:00:00
Wind direction °
Wind speed 08 kts
Lowest cloud amount few clouds
Temperature 27°C
Dew point 22°C
Humidity 74%
QNH 1007 hPa
Weather condition n/a

New Tanegashima Airport, also known as Tanegashima Airport, is located in Nakatane, on Tanegashima, one of the Ōsumi Islands in southern Kagoshima Prefecture, Japan.

Climatology

Humid Sub-tropical climate (Köppen climate classification Cfa)

Maps

Terrain

Loading map...

Airport Layout

Loading map...


Accidents & Serious Incidents at or in vicinity of RJFG

None on SKYbrary